Wolf Creek Pass, CO

9:31 PM MDT on May 24, 2017 (GMT -0600)
Wolf Creek Pass

Weather History for KCPW - May, 2013

Change the Weather History Date:

Thursday, May 30, 2013

  Actual Average (KALS) Record (KALS)
Temperature  
Mean Temperature 34 °F -  
Max Temperature 42 °F 71 °F 88 °F (2000)
Min Temperature 26 °F 37 °F 22 °F (1946)
Degree Days  
Heating Degree Days 31    
Moisture  
Dew Point 18 °F    
Average Humidity 52    
Maximum Humidity 74    
Minimum Humidity 34    
Precipitation  
Precipitation 0.00 in - - ()
Sea Level Pressure  
Sea Level Pressure 30.14 in    
Wind  
Wind Speed 18 mph (WSW)    
Max Wind Speed 34 mph    
Max Gust Speed 52 mph    
Visibility 10 miles    
Events Snow    
Averages and records for this station are not official NWS values.
T = Trace of Precipitation, MM = Missing Value Source: NWS Daily Summary

Daily Weather History Graph

Daily Weather History Graph

Search for Another Location

Airport or City:

Trip Planner

Search our weather history database for the weather conditions in past years. The results will help you decide how hot, cold, wet, or windy it might be!

Date:

Astronomy

May. 30, 2013 Rise Set
Actual Time 5:48 AM MDT 8:21 PM MDT
Civil Twilight 5:18 AM MDT 8:51 PM MDT
Nautical Twilight 4:40 AM MDT 9:29 PM MDT
Astronomical Twilight 3:58 AM MDT 10:11 PM MDT
Moon 12:28 AM MDT (5/30) 11:55 AM MDT (5/30)
Length of Visible Light 15h 33m
Length of Day
14h 32m
Waning Gibbous, 61% of the Moon is Illuminated
May 30
Waning Gibbous
May 31
Last Quarter
Jun 8
New
Jun 16
First Quarter
Jun 23
Full

Hourly Weather History & Observations

Time (MDT) Temp. Windchill Dew Point Humidity Pressure Visibility Wind Dir Wind Speed Gust Speed Precip Events Conditions
12:03 AM 30.2 °F 20.8 °F 17.6 °F 60% 30.07 in 10.0 mi West 11.5 mph 26.5 mph N/A   Scattered Clouds
12:23 AM 28.4 °F 19.7 °F 15.8 °F 59% 30.08 in 10.0 mi West 9.2 mph 25.3 mph N/A   Clear
12:43 AM 30.2 °F 19.8 °F 15.8 °F 55% 30.08 in 10.0 mi WNW 13.8 mph 25.3 mph N/A   Clear
1:03 AM 30.2 °F 24.3 °F 14.0 °F 51% 30.08 in 10.0 mi WNW 5.8 mph 24.2 mph N/A   Clear
1:23 AM 28.4 °F 19.1 °F 15.8 °F 59% 30.09 in 10.0 mi WNW 10.4 mph 18.4 mph N/A   Clear
1:43 AM 30.2 °F 19.3 °F 15.8 °F 55% 30.09 in 10.0 mi West 15.0 mph 32.2 mph N/A   Clear
2:03 AM 30.2 °F 18.9 °F 14.0 °F 51% 30.08 in 10.0 mi West 16.1 mph 26.5 mph N/A   Clear
2:23 AM 28.4 °F 16.6 °F 14.0 °F 55% 30.08 in 10.0 mi West 16.1 mph 24.2 mph N/A   Clear
2:43 AM 28.4 °F 17.0 °F 14.0 °F 55% 30.08 in 10.0 mi West 15.0 mph 25.3 mph N/A   Clear
3:03 AM 28.4 °F 16.2 °F 14.0 °F 55% 30.08 in 10.0 mi West 17.3 mph 24.2 mph N/A   Scattered Clouds
3:23 AM 28.4 °F 17.0 °F 14.0 °F 55% 30.06 in 10.0 mi West 15.0 mph 20.7 mph N/A   Scattered Clouds
3:43 AM 28.4 °F 15.4 °F 14.0 °F 55% 30.06 in 10.0 mi WSW 19.6 mph 31.1 mph N/A   Clear
4:03 AM 28.4 °F 18.0 °F 14.0 °F 55% 30.07 in 10.0 mi WSW 12.7 mph 36.8 mph N/A   Clear
4:23 AM 28.4 °F 15.8 °F 15.8 °F 59% 30.07 in 10.0 mi West 18.4 mph 26.5 mph N/A   Scattered Clouds
4:43 AM 28.4 °F 17.0 °F 17.6 °F 64% 30.07 in 10.0 mi West 15.0 mph 25.3 mph N/A   Scattered Clouds
5:03 AM 28.4 °F 16.6 °F 17.6 °F 64% 30.07 in 10.0 mi WSW 16.1 mph 32.2 mph N/A   Clear
5:23 AM 28.4 °F 17.0 °F 17.6 °F 64% 30.08 in 10.0 mi WSW 15.0 mph 25.3 mph N/A   Scattered Clouds
5:43 AM 26.6 °F 17.5 °F 17.6 °F 69% 30.08 in 10.0 mi SW 9.2 mph - N/A   Scattered Clouds
6:03 AM 26.6 °F 14.3 °F 17.6 °F 69% 30.08 in 10.0 mi SW 16.1 mph - N/A   Scattered Clouds
6:23 AM 26.6 °F 15.7 °F 19.4 °F 74% 30.09 in 10.0 mi WSW 12.7 mph 17.3 mph N/A   Scattered Clouds
6:43 AM 26.6 °F 14.3 °F 19.4 °F 74% 30.09 in 5.0 mi WSW 16.1 mph 20.7 mph N/A Snow Light Snow
7:03 AM 28.4 °F 17.0 °F 19.4 °F 69% 30.09 in 10.0 mi SW 15.0 mph 27.6 mph N/A   Scattered Clouds
7:23 AM 30.2 °F 18.9 °F 19.4 °F 64% 30.10 in 10.0 mi WSW 16.1 mph 25.3 mph N/A   Scattered Clouds
7:43 AM 30.2 °F 19.8 °F 19.4 °F 64% 30.11 in 10.0 mi SW 13.8 mph 19.6 mph N/A   Mostly Cloudy
8:03 AM 30.2 °F 19.3 °F 21.2 °F 69% 30.11 in 10.0 mi SW 15.0 mph 18.4 mph N/A   Overcast
8:23 AM 32.0 °F 22.1 °F 21.2 °F 64% 30.12 in 10.0 mi WSW 13.8 mph 23.0 mph N/A   Overcast
8:43 AM 32.0 °F 19.5 °F 19.4 °F 60% 30.12 in 10.0 mi WSW 21.9 mph 29.9 mph N/A   Scattered Clouds
9:03 AM 32.0 °F 20.8 °F 21.2 °F 64% 30.12 in 10.0 mi WSW 17.3 mph 32.2 mph N/A   Scattered Clouds
9:23 AM 32.0 °F 19.8 °F 21.2 °F 64% 30.12 in 10.0 mi WSW 20.7 mph 29.9 mph N/A   Clear
9:43 AM 32.0 °F 19.8 °F 21.2 °F 64% 30.13 in 10.0 mi WSW 20.7 mph 32.2 mph N/A   Clear
10:03 AM 33.8 °F 21.0 °F 23.0 °F 65% 30.13 in 10.0 mi SW 25.3 mph 33.4 mph N/A   Clear
10:23 AM 33.8 °F 20.5 °F 23.0 °F 65% 30.13 in 10.0 mi SW 27.6 mph 38.0 mph N/A   Clear
10:43 AM 33.8 °F 22.2 °F 23.0 °F 65% 30.14 in 10.0 mi SW 20.7 mph 36.8 mph N/A   Scattered Clouds
11:03 AM 35.6 °F 24.2 °F 23.0 °F 60% 30.13 in 10.0 mi SSW 21.9 mph 35.7 mph N/A   Scattered Clouds
11:23 AM 33.8 °F 23.5 °F 24.8 °F 70% 30.15 in 10.0 mi SSW 16.1 mph 32.2 mph N/A   Mostly Cloudy
11:43 AM 35.6 °F 24.8 °F 24.8 °F 65% 30.15 in 10.0 mi SW 19.6 mph 35.7 mph N/A   Mostly Cloudy
12:03 PM 35.6 °F 22.5 °F 23.0 °F 60% 30.14 in 10.0 mi SW 29.9 mph 38.0 mph N/A   Overcast
12:23 PM 37.4 °F 25.4 °F 23.0 °F 56% 30.14 in 10.0 mi SSW 27.6 mph 36.8 mph N/A   Overcast
12:43 PM 35.6 °F 22.3 °F 21.2 °F 56% 30.15 in 10.0 mi SSW 31.1 mph 41.4 mph N/A   Overcast
1:03 PM 37.4 °F 25.6 °F 21.2 °F 52% 30.15 in 10.0 mi SW 26.5 mph 42.6 mph N/A   Mostly Cloudy
1:23 PM 37.4 °F 26.6 °F 21.2 °F 52% 30.15 in 10.0 mi SW 21.9 mph 36.8 mph N/A   Overcast
1:43 PM 39.2 °F 28.7 °F 19.4 °F 45% 30.14 in 10.0 mi SSW 23.0 mph 51.8 mph N/A   Mostly Cloudy
2:03 PM 41.0 °F 30.0 °F 19.4 °F 42% 30.13 in 10.0 mi SW 28.8 mph 46.0 mph N/A   Scattered Clouds
2:23 PM 41.0 °F 31.4 °F 19.4 °F 42% 30.15 in 10.0 mi WSW 21.9 mph 41.4 mph N/A   Scattered Clouds
2:43 PM 41.0 °F 29.8 °F 19.4 °F 42% 30.14 in 10.0 mi SW 29.9 mph 43.7 mph N/A   Scattered Clouds
3:03 PM 41.0 °F 30.2 °F 19.4 °F 42% 30.14 in 10.0 mi SW 27.6 mph 40.3 mph N/A   Mostly Cloudy
3:23 PM 42.8 °F 34.0 °F 19.4 °F 39% 30.15 in 10.0 mi SW 20.7 mph 43.7 mph N/A   Mostly Cloudy
3:43 PM 42.8 °F 32.3 °F 17.6 °F 36% 30.14 in 10.0 mi SW 29.9 mph 51.8 mph N/A   Mostly Cloudy
4:03 PM 42.8 °F 31.9 °F 15.8 °F 34% 30.15 in 10.0 mi SW 32.2 mph 49.5 mph N/A   Mostly Cloudy
4:23 PM 42.8 °F 33.3 °F 17.6 °F 36% 30.15 in 10.0 mi SW 24.2 mph 40.3 mph N/A   Scattered Clouds
4:43 PM 42.8 °F 31.6 °F 15.8 °F 34% 30.15 in 10.0 mi WSW 34.5 mph 43.7 mph N/A   Scattered Clouds
5:03 PM 42.8 °F 31.9 °F 15.8 °F 34% 30.15 in 10.0 mi SW 32.2 mph 51.8 mph N/A   Scattered Clouds
5:23 PM 42.8 °F 32.9 °F 19.4 °F 39% 30.16 in 10.0 mi SW 26.5 mph 43.7 mph N/A   Scattered Clouds
5:43 PM 41.0 °F 29.8 °F 19.4 °F 42% 30.15 in 10.0 mi SW 29.9 mph 46.0 mph N/A   Mostly Cloudy
6:03 PM 41.0 °F 29.3 °F 19.4 °F 42% 30.16 in 10.0 mi SW 33.4 mph 50.6 mph N/A   Mostly Cloudy
6:23 PM 41.0 °F 30.0 °F 19.4 °F 42% 30.17 in 10.0 mi SW 28.8 mph 39.1 mph N/A   Mostly Cloudy
6:43 PM 41.0 °F 31.1 °F 19.4 °F 42% 30.17 in 10.0 mi SSW 23.0 mph 39.1 mph N/A   Mostly Cloudy
7:03 PM 41.0 °F 29.8 °F 19.4 °F 42% 30.18 in 10.0 mi SW 29.9 mph 46.0 mph N/A   Scattered Clouds
7:23 PM 41.0 °F 29.8 °F 17.6 °F 39% 30.17 in 10.0 mi SW 29.9 mph 46.0 mph N/A   Scattered Clouds
7:43 PM 41.0 °F 32.2 °F 17.6 °F 39% 30.19 in 10.0 mi SSW 18.4 mph 38.0 mph N/A   Scattered Clouds
8:03 PM 39.2 °F 28.5 °F 15.8 °F 39% 30.19 in 10.0 mi SW 24.2 mph 40.3 mph N/A   Scattered Clouds
8:23 PM 37.4 °F 26.1 °F 14.0 °F 38% 30.19 in 10.0 mi SW 24.2 mph 40.3 mph N/A   Clear
8:43 PM 37.4 °F 25.0 °F 14.0 °F 38% 30.20 in 10.0 mi SW 29.9 mph 40.3 mph N/A   Clear
9:03 PM 37.4 °F 26.1 °F 14.0 °F 38% 30.21 in 10.0 mi SW 24.2 mph 34.5 mph N/A   Clear
9:23 PM 37.4 °F 25.2 °F 14.0 °F 38% 30.22 in 10.0 mi SW 28.8 mph 40.3 mph N/A   Clear
9:43 PM 37.4 °F 25.9 °F 14.0 °F 38% 30.22 in 10.0 mi SW 25.3 mph 36.8 mph N/A   Clear
10:03 PM 35.6 °F 24.2 °F 12.2 °F 38% 30.23 in 10.0 mi WSW 21.9 mph 35.7 mph N/A   Clear
10:23 PM 37.4 °F 25.2 °F 12.2 °F 36% 30.22 in 10.0 mi WSW 28.8 mph 46.0 mph N/A   Clear
10:43 PM 37.4 °F 27.2 °F 12.2 °F 36% 30.24 in 10.0 mi WSW 19.6 mph 40.3 mph N/A   Clear
11:03 PM 37.4 °F 27.5 °F 12.2 °F 36% 30.24 in 10.0 mi WSW 18.4 mph 34.5 mph N/A   Clear
11:23 PM 37.4 °F 27.2 °F 14.0 °F 38% 30.24 in 10.0 mi WSW 19.6 mph 36.8 mph N/A   Clear
11:43 PM 37.4 °F 27.5 °F 14.0 °F 38% 30.24 in 10.0 mi WSW 18.4 mph 29.9 mph N/A   Clear